Weather History for Columbus, OH

Change the Weather History Date:

Tuesday, July 23, 2013

  Actual Average Record
Temperature  
Mean Temperature 79 °F 75 °F  
Max Temperature 88 °F 85 °F 99 °F (1933)
Min Temperature 69 °F 66 °F 51 °F (1981)
Degree Days  
Heating Degree Days 0 0  
Month to date heating degree days 0 0  
Since 1 June heating degree days 6 19  
Since 1 July heating degree days 0 0  
Cooling Degree Days 14 10  
Month to date cooling degree days 292 230  
Year to date cooling degree days 691 528  
Since 1 June cooling degree days 530 446  
Growing Degree Days 28 (Base 50)    
Moisture  
Dew Point 69 °F    
Average Humidity 78    
Maximum Humidity 100    
Minimum Humidity 55    
Precipitation  
Precipitation 0.01 in 0.16 in 3.06 in (2002)
Month to date precipitation 6.26 3.62  
Year to date precipitation 23.19 23.20  
Snow  
Snow 0.00 in 0.00 in 0.00 in ()
Month to date snowfall 0.0 0.0  
Since 1 June snowfall 0.0 0.0  
Since 1 July snowfall 0.0 0.0  
Snow Depth 0.00 in    
Sea Level Pressure  
Sea Level Pressure 29.77 in    
Wind  
Wind Speed 9 mph (WSW)    
Max Wind Speed 24 mph    
Max Gust Speed 30 mph    
Visibility 6 miles    
Events Rain , Thunderstorm    
T = Trace of Precipitation, MM = Missing Value Source: NWS Daily Summary

Daily Weather History Graph

Daily Weather History Graph

Search for Another Location

Airport:

Trip Planner

Search our weather history database for the weather conditions in past years. The results will help you decide how hot, cold, wet, or windy it might be!

Date:

Astronomy

Jul. 23, 2013 Rise Set
Actual Time 6:22 AM EDT 8:53 PM EDT
Civil Twilight 5:50 AM EDT 9:24 PM EDT
Nautical Twilight 5:12 AM EDT 10:03 PM EDT
Astronomical Twilight 4:28 AM EDT 10:46 PM EDT
Moon 9:20 PM EDT (7/23) 7:29 AM EDT (7/23)
Length of Visible Light 15h 33m
Length of Day
14h 31m
Full, 99% of the Moon is Illuminated
Jul 23
Full
Jul 29
Last Quarter
Aug 6
New
Aug 14
First Quarter
Aug 20
Full

Hourly Weather History & Observations

Time (EDT) Temp. Heat Index Dew Point Humidity Pressure Visibility Wind Dir Wind Speed Gust Speed Precip Events Conditions
12:00 AM 73.4 °F - 71.6 °F 94% 29.82 in 7.0 mi SSW 4.6 mph - N/A   Overcast
12:27 AM 73.4 °F - 71.6 °F 94% 29.81 in 6.0 mi Calm Calm - N/A   Mostly Cloudy
12:51 AM 72.0 °F - 71.1 °F 97% 29.79 in 5.0 mi Calm Calm - N/A   Mostly Cloudy
1:05 AM 71.6 °F - 69.8 °F 94% 29.81 in 4.0 mi SW 3.5 mph - N/A   Partly Cloudy
1:51 AM 72.0 °F - 70.0 °F 93% 29.78 in 6.0 mi Calm Calm - N/A   Clear
2:51 AM 70.0 °F - 68.0 °F 93% 29.80 in 4.0 mi Calm Calm - N/A   Scattered Clouds
3:01 AM 69.8 °F - 69.8 °F 100% 29.82 in 4.0 mi Calm Calm - N/A   Mostly Cloudy
3:41 AM 69.8 °F - 69.8 °F 100% 29.81 in 3.0 mi Calm Calm - N/A   Partly Cloudy
3:51 AM 70.0 °F - 69.1 °F 97% 29.79 in 3.0 mi West 3.5 mph - N/A   Clear
4:15 AM 69.8 °F - 69.8 °F 100% 29.80 in 3.0 mi WNW 3.5 mph - N/A   Scattered Clouds
4:40 AM 69.8 °F - 69.8 °F 100% 29.80 in 3.0 mi WNW 4.6 mph - N/A   Overcast
4:51 AM 70.0 °F - 69.1 °F 97% 29.78 in 3.0 mi West 3.5 mph - N/A   Overcast
5:12 AM 69.8 °F - 69.8 °F 100% 29.80 in 3.0 mi West 3.5 mph - N/A   Overcast
5:41 AM 69.8 °F - 68.0 °F 94% 29.80 in 3.0 mi Calm Calm - N/A   Scattered Clouds
5:51 AM 70.0 °F - 68.0 °F 93% 29.78 in 3.0 mi NW 5.8 mph - N/A   Partly Cloudy
6:28 AM 69.8 °F - 68.0 °F 94% 29.81 in 2.5 mi Calm Calm - N/A   Partly Cloudy
6:39 AM 69.8 °F - 68.0 °F 94% 29.81 in 3.0 mi Calm Calm - N/A   Scattered Clouds
6:51 AM 69.1 °F - 68.0 °F 96% 29.80 in 3.0 mi Calm Calm - N/A   Scattered Clouds
7:23 AM 69.8 °F - 69.8 °F 100% 29.81 in 2.5 mi Calm Calm - N/A   Scattered Clouds
7:51 AM 70.0 °F - 69.1 °F 97% 29.78 in 2.0 mi SSE 5.8 mph - N/A   Mostly Cloudy
7:59 AM 69.8 °F - 69.8 °F 100% 29.80 in 1.0 mi South 6.9 mph - N/A   Overcast
8:11 AM 69.8 °F - 69.8 °F 100% 29.81 in 1.8 mi South 5.8 mph - N/A   Overcast
8:16 AM 69.8 °F - 69.8 °F 100% 29.80 in 0.2 mi South 5.8 mph - N/A   Overcast
8:51 AM 69.1 °F - 69.1 °F 100% 29.79 in 0.8 mi South 4.6 mph - N/A   Overcast
9:02 AM 69.8 °F - 69.8 °F 100% 29.80 in 1.0 mi SSW 5.8 mph - N/A   Overcast
9:44 AM 71.6 °F - 69.8 °F 94% 29.81 in 5.0 mi WSW 6.9 mph - N/A   Overcast
9:51 AM 73.0 °F - 70.0 °F 90% 29.79 in 5.0 mi SW 4.6 mph - N/A   Mostly Cloudy
10:12 AM 73.4 °F - 69.8 °F 88% 29.81 in 7.0 mi SW 4.6 mph - N/A   Mostly Cloudy
10:51 AM 78.1 °F - 70.0 °F 76% 29.79 in 7.0 mi WSW 9.2 mph - N/A   Mostly Cloudy
11:51 AM 82.9 °F 87.5 °F 71.1 °F 67% 29.78 in 10.0 mi West 8.1 mph - N/A   Mostly Cloudy
12:51 PM 82.9 °F 87.0 °F 70.0 °F 65% 29.78 in 10.0 mi WSW 15.0 mph - N/A   Overcast
1:51 PM 84.0 °F 89.0 °F 71.1 °F 65% 29.75 in 10.0 mi WSW 12.7 mph - N/A   Mostly Cloudy
2:51 PM 86.0 °F 90.7 °F 70.0 °F 59% 29.73 in 10.0 mi West 15.0 mph 23.0 mph N/A   Mostly Cloudy
3:51 PM 87.1 °F 91.3 °F 69.1 °F 55% 29.70 in 10.0 mi WSW 15.0 mph - N/A   Mostly Cloudy
4:51 PM 86.0 °F 91.5 °F 71.1 °F 61% 29.69 in 10.0 mi WSW 15.0 mph - 0.01 in   Mostly Cloudy
5:17 PM 82.4 °F 86.3 °F 69.8 °F 66% 29.73 in 8.0 mi SW 13.8 mph 29.9 mph 0.00 in Rain , Thunderstorm Light Thunderstorms and Rain
5:40 PM 82.4 °F 86.3 °F 69.8 °F 66% 29.72 in 10.0 mi SW 10.4 mph - 0.00 in   Mostly Cloudy
5:51 PM 84.0 °F 89.0 °F 71.1 °F 65% 29.69 in 10.0 mi WSW 11.5 mph - 0.00 in   Mostly Cloudy
6:51 PM 84.9 °F 88.8 °F 69.1 °F 59% 29.68 in 10.0 mi West 13.8 mph - N/A   Scattered Clouds
7:51 PM 81.0 °F 83.8 °F 68.0 °F 65% 29.70 in 10.0 mi West 13.8 mph - N/A   Mostly Cloudy
8:51 PM 82.0 °F 83.8 °F 64.9 °F 56% 29.71 in 10.0 mi WNW 9.2 mph - N/A   Scattered Clouds
9:51 PM 79.0 °F - 64.0 °F 60% 29.74 in 10.0 mi WNW 6.9 mph - N/A   Scattered Clouds
10:51 PM 77.0 °F - 66.0 °F 69% 29.76 in 10.0 mi North 13.8 mph - N/A   Scattered Clouds
11:51 PM 75.0 °F - 66.0 °F 73% 29.78 in 10.0 mi North 9.2 mph - N/A   Scattered Clouds